Theta_e
299 299 298 298 297 297 296 295 294 295 295 295 295 294 294 294 293 292 293 293 292 292 291 290 290 291 290 290 289 289 289 288 288 291 291 291 293 293 292 292 292 292 292
298 298 297 297 296 295 295 294 295 295 295 294 294 294 294 293 293 293 293 293 292 292 291 290 290 290 288 289 288 289 289 288 287 288 291 291 292 293 291 291 291 291 292
296 295 295 295 295 294 294 295 294 294 294 294 294 294 294 294 293 293 294 293 292 292 292 291 289 288 287 289 287 288 289 288 288 287 290 291 292 290 290 290 290 291 291
294 294 294 294 294 294 294 294 294 294 293 293 293 293 293 293 293 293 293 292 292 292 291 289 288 288 288 288 289 290 289 289 290 290 291 291 290 288 289 289 290 290 290
293 293 293 293 293 293 293 293 293 293 292 292 292 292 292 293 293 292 292 292 291 292 291 289 288 288 287 287 289 289 286 285 286 287 288 289 289 288 288 289 289 290 290
292 293 293 294 294 294 294 293 292 292 292 292 292 292 292 292 291 291 291 291 291 291 291 289 289 288 288 289 290 288 286 286 286 286 286 287 288 287 287 287 288 288 288
292 292 293 293 293 293 293 293 293 292 292 292 291 291 291 291 290 290 289 290 290 290 291 290 289 290 290 290 289 287 286 286 286 286 286 286 287 287 286 286 286 286 287
292 292 292 292 292 292 292 291 292 291 291 291 291 291 291 291 290 289 289 289 288 289 289 289 289 289 290 289 287 286 286 285 285 285 286 287 286 285 285 284 285 285 286
290 290 290 290 289 289 289 289 289 289 289 289 290 290 290 290 289 289 289 289 289 289 289 289 288 288 287 286 285 286 286 286 285 284 284 284 284 284 284 283 284 284 284
289 289 288 288 287 288 288 288 287 287 287 288 287 287 287 287 287 287 287 288 287 285 285 286 285 287 288 287 287 286 286 287 286 286 286 286 285 285 284 283 284 283 283
288 288 287 287 287 287 287 286 286 286 287 287 287 287 287 287 287 286 286 285 284 283 283 283 284 283 283 284 284 285 286 287 286 286 286 286 287 286 286 285 284 283 283
286 286 285 286 286 286 286 285 285 286 286 286 286 286 286 286 286 285 285 284 282 282 282 282 282 283 283 283 284 284 285 285 285 285 285 285 285 286 286 286 285 285 284
285 284 285 285 285 285 285 285 285 285 285 285 285 285 285 284 284 284 282 281 281 282 281 282 281 281 282 283 283 284 284 284 284 284 284 284 284 284 284 284 284 284 284
283 283 283 284 284 284 283 283 283 282 282 282 282 282 282 282 283 283 282 281 281 281 282 282 281 281 282 282 282 282 282 283 283 283 283 283 283 283 283 284 284 284 284
283 283 283 283 283 283 283 282 282 282 282 281 281 281 281 281 281 280 280 280 281 280 280 279 279 279 280 280 281 282 282 282 282 282 282 283 283 282 283 283 283 283 283
283 283 282 282 282 282 282 282 282 282 282 282 282 282 281 281 281 280 280 280 279 279 279 279 279 278 279 278 278 279 280 280 281 281 282 282 282 282 282 282 282 282 282
282 282 282 282 282 282 282 282 282 282 282 282 282 282 282 281 281 281 280 280 279 279 280 280 279 278 278 278 278 278 278 277 277 278 280 281 281 281 281 281 281 281 281
282 282 282 282 282 282 282 282 282 282 282 282 282 282 282 281 281 281 281 280 280 280 280 280 280 279 278 278 277 277 277 277 277 277 277 277 277 278 279 279 280 280 280
282 282 282 282 282 282 282 282 282 282 282 282 282 281 281 280 280 280 280 280 280 280 280 280 280 280 279 279 278 277 277 277 277 276 277 276 276 276 276 276 276 277 278
282 282 282 282 282 282 282 282 282 281 281 282 282 282 281 280 280 280 280 279 279 279 279 279 279 279 279 279 279 279 278 278 277 277 277 276 276 275 276 276 275 275 275
281 281 282 282 282 282 281 281 280 280 280 280 280 280 279 279 279 279 279 279 278 278 278 278 278 278 278 278 278 279 278 278 278 277 277 276 275 275 275 275 275 275 275
281 281 280 280 280 280 280 280 280 279 279 279 279 278 278 277 277 277 277 277 277 277 276 276 276 277 277 277 277 277 277 277 278 278 277 276 275 275 274 274 274 274 274
280 280 280 280 279 279 279 278 278 277 277 277 277 277 276 276 276 275 275 275 274 274 274 273 273 273 274 274 274 275 275 276 276 276 276 276 274 274 274 274 273 273 273
278 278 278 278 277 277 277 276 276 275 275 275 275 275 275 275 275 274 274 273 274 273 273 272 271 271 271 271 272 272 273 273 274 274 275 275 274 273 273 273 273 273 272
276 276 276 276 276 275 275 275 275 275 275 275 275 274 273 273 273 272 272 272 272 273 272 271 270 270 270 270 270 270 271 271 272 272 272 273 273 272 272 272 272 272 272
276 275 275 275 275 275 274 274 274 273 273 273 273 272 272 272 273 273 273 271 271 270 271 271 271 270 270 270 270 270 270 270 271 271 271 272 272 272 271 271 271 271 271
Wind_Speed
33 32 31 30 29 28 27 25 23 22 21 21 20 19 20 20 21 22 22 22 23 22 21 20 20 19 19 17 17 16 18 19 23 23 16 18 16 11 13 12 11 10 9
31 31 29 28 27 26 25 23 22 21 21 21 21 20 20 21 21 22 22 21 21 19 18 18 19 18 18 17 17 17 17 17 21 23 19 21 19 17 13 12 11 10 10
28 27 26 25 24 23 22 21 21 21 21 21 21 20 19 19 18 18 18 17 18 17 17 18 18 17 18 17 17 17 17 16 17 20 19 13 11 13 14 14 14 13 13
25 24 23 22 22 21 21 21 21 21 21 20 20 19 19 18 18 17 17 17 17 17 17 18 19 19 18 17 17 16 15 16 16 17 15 14 12 11 12 12 13 14 14
22 21 20 20 20 19 19 19 20 21 21 20 21 19 18 17 16 17 16 16 17 16 16 18 18 18 17 18 18 18 16 15 15 16 15 15 13 11 11 12 12 14 15
18 17 17 17 17 16 17 17 19 20 20 21 20 20 18 17 16 17 16 16 16 16 17 17 17 18 18 19 18 19 19 19 19 18 18 18 15 12 12 13 15 14 15
15 14 14 14 15 15 15 16 18 18 19 20 21 20 20 19 18 18 18 19 18 17 16 17 18 19 18 19 19 19 20 20 20 20 22 21 19 14 14 16 17 18 19
14 14 14 15 15 16 17 16 17 17 17 18 19 20 20 21 21 21 21 21 21 20 20 19 19 19 18 17 18 21 22 22 22 23 25 22 21 19 19 19 21 23 24
11 11 12 12 13 14 14 14 16 17 17 17 18 19 20 20 20 21 22 24 24 23 22 22 21 21 18 18 21 24 24 25 24 24 25 25 25 23 22 22 25 25 27
10 9 8 9 10 11 12 12 14 13 14 15 16 16 17 17 16 17 19 21 23 23 22 22 21 22 21 22 24 26 28 27 24 24 25 26 25 25 23 25 25 26 26
10 10 10 10 10 9 10 11 11 11 11 12 12 14 14 15 15 17 18 19 21 21 21 20 20 20 20 19 19 24 28 25 25 25 26 27 28 29 29 29 29 30 31
8 8 8 8 8 8 8 7 8 7 7 9 10 11 12 12 11 12 13 15 16 18 19 18 18 18 19 20 20 23 22 22 23 24 26 27 26 24 22 23 25 28 30
8 8 8 7 6 5 5 5 4 4 4 5 6 7 10 10 10 12 11 10 11 13 14 13 12 13 14 15 16 16 17 19 22 25 26 27 25 21 20 20 19 21 22
8 6 5 5 5 5 5 4 3 2 1 2 3 5 5 6 6 7 9 12 14 16 16 16 16 18 18 17 19 20 21 24 26 29 31 31 28 24 22 18 17 16 17
7 8 8 7 6 5 4 3 2 1 1 2 3 4 4 4 5 6 7 8 10 11 12 12 12 13 12 12 14 18 20 21 21 24 22 21 22 22 20 16 16 16 18
8 8 7 6 5 4 3 3 1 1 1 2 3 4 5 6 7 8 9 10 11 11 14 12 12 13 13 12 12 11 15 17 19 18 18 18 18 19 19 18 18 19 19
6 6 5 4 4 3 2 3 4 5 6 7 8 9 10 10 11 11 12 13 15 15 17 14 15 15 15 16 16 15 14 15 17 18 20 21 21 20 19 18 19 19 20
6 6 6 6 6 6 7 8 9 10 12 12 13 16 16 15 16 17 18 19 21 20 20 20 19 19 19 20 20 20 19 19 19 19 19 19 20 21 22 21 21 20 20
9 9 10 11 11 12 13 15 16 18 19 20 19 18 19 21 22 23 23 25 26 26 25 26 25 26 25 24 25 24 24 24 23 23 21 20 20 21 21 20 20 19 19
14 15 16 17 17 18 19 21 22 24 25 26 26 26 25 25 26 26 27 28 30 31 31 32 30 30 30 29 28 28 29 29 28 27 25 23 22 23 22 21 20 20 19
18 19 19 21 23 24 26 27 27 28 29 30 30 27 27 31 33 32 30 31 32 33 33 35 36 36 34 33 33 33 33 34 32 31 29 28 26 26 23 22 21 21 21
22 23 24 25 26 28 28 29 30 31 32 34 34 33 31 33 34 35 34 34 33 33 34 35 38 40 40 38 36 36 37 37 35 33 33 31 29 28 26 25 23 23 22
27 28 29 30 30 32 33 34 34 34 35 35 34 33 30 29 28 26 25 24 25 28 30 32 34 35 36 38 37 36 37 37 35 33 33 33 32 31 29 28 25 24 24
30 31 31 31 31 31 31 30 29 28 27 26 25 24 24 23 23 24 24 24 25 27 28 28 28 30 31 31 32 33 33 34 33 32 32 33 32 31 31 30 27 25 23
26 26 26 25 25 25 25 25 25 25 25 25 24 25 25 26 27 27 27 26 25 24 24 23 22 22 23 24 25 25 27 28 30 29 29 30 31 30 30 29 27 25 24
24 24 25 25 25 25 25 26 26 26 27 27 27 27 27 27 27 27 25 24 24 23 22 21 19 18 18 19 19 20 22 24 26 27 27 28 29 28 27 26 25 24 23
Wind_Direction
201 204 206 207 210 217 222 227 231 234 236 241 245 248 253 256 257 258 259 260 259 258 253 250 250 246 245 241 242 239 238 236 245 248 238 243 250 233 255 250 254 258 255
200 200 202 208 213 219 223 226 229 232 237 240 243 245 247 251 253 253 254 254 252 252 251 247 246 242 243 241 243 243 242 239 244 255 253 250 247 245 236 244 246 250 250
199 203 204 209 214 219 222 227 231 232 237 240 245 248 248 249 249 248 250 251 251 250 249 247 248 242 241 241 243 244 240 238 240 249 257 254 226 224 232 237 239 246 248
202 206 211 214 218 221 224 227 232 234 236 237 242 246 249 247 247 248 250 252 251 248 247 245 245 242 242 241 239 239 237 237 237 243 248 246 233 228 244 244 244 242 247
208 209 212 216 222 226 228 229 232 233 234 235 238 242 245 247 249 250 251 251 252 249 245 244 245 244 241 239 235 230 230 237 238 242 244 246 242 243 252 249 246 247 252
201 206 213 218 223 228 232 233 233 233 234 237 240 243 245 248 248 250 250 249 251 248 248 248 247 247 243 239 229 227 233 240 243 249 253 254 254 256 256 262 263 267 273
204 211 218 223 226 230 233 236 237 236 237 239 241 244 247 248 246 246 246 249 250 250 250 251 249 248 247 241 230 233 240 243 246 251 254 257 261 261 266 266 271 271 269
214 220 222 227 231 233 234 236 238 239 241 242 243 245 247 248 247 245 246 248 250 251 251 253 253 253 249 239 235 239 243 248 253 260 265 264 265 267 265 268 268 268 269
210 220 226 229 232 235 238 240 243 243 243 246 247 247 249 248 248 247 245 247 250 253 253 254 253 251 245 239 249 251 247 246 249 254 257 263 267 268 267 262 261 265 270
215 219 226 233 236 238 240 241 240 239 240 243 246 247 248 251 249 246 245 247 251 255 257 260 263 263 254 246 245 252 262 256 256 254 256 257 259 259 259 258 263 263 265
201 208 213 218 222 225 230 233 236 240 243 247 248 251 253 254 250 248 244 242 248 254 258 259 262 263 263 258 252 256 261 268 266 267 265 262 257 257 256 256 256 257 258
203 207 209 213 217 219 224 231 238 239 244 252 254 251 249 247 247 249 248 240 247 254 259 263 262 259 255 251 247 248 249 258 266 268 268 268 266 266 266 263 257 253 255
197 198 200 201 205 209 215 230 242 253 259 264 261 253 244 241 242 245 241 235 239 250 260 264 264 261 257 253 251 247 250 252 256 262 264 268 274 276 271 261 254 253 253
184 174 182 186 190 192 197 205 214 228 260 269 274 263 265 279 282 264 247 246 241 246 253 258 262 263 266 265 256 249 247 247 252 257 263 267 269 270 273 267 256 253 257
164 164 168 167 164 158 150 141 123 86 22 330 313 315 313 311 288 271 266 266 262 261 264 270 272 273 275 273 269 258 250 258 259 270 269 269 266 264 265 265 257 256 257
165 166 165 162 159 156 149 137 107 43 350 319 311 310 303 298 285 285 278 273 276 275 275 277 275 278 280 278 274 264 259 263 266 261 262 267 269 267 264 265 261 257 259
183 188 186 192 199 206 234 275 290 288 287 290 291 287 285 283 280 279 278 275 272 271 273 276 274 271 272 273 272 269 264 262 262 263 262 263 266 268 267 266 263 261 260
227 234 243 251 255 261 266 270 275 275 275 276 278 278 278 276 275 274 273 271 269 269 274 277 274 272 271 270 269 270 270 266 263 262 261 262 263 265 267 267 265 262 258
254 259 262 264 269 273 276 279 281 282 283 283 277 268 274 273 270 270 269 268 273 274 275 275 277 276 273 269 267 267 267 268 267 264 262 261 261 261 262 265 265 263 261
265 265 267 270 271 274 279 279 279 281 281 281 281 284 282 275 269 267 266 268 269 272 274 275 275 273 273 271 269 267 265 263 263 265 265 263 261 261 261 260 261 264 264
270 271 272 273 277 279 279 280 281 280 282 282 282 282 281 281 281 278 274 271 273 273 272 272 272 271 268 266 265 264 264 263 261 261 260 260 258 258 259 258 256 256 258
277 277 278 279 281 282 284 283 283 283 282 283 284 283 282 279 280 282 283 284 283 281 280 277 273 270 268 265 263 261 260 260 259 258 257 256 256 256 255 254 253 253 253
277 278 280 281 282 281 280 281 281 282 283 284 285 285 284 281 280 280 283 287 290 291 289 284 279 274 269 266 263 259 258 258 259 257 254 252 251 250 250 251 251 250 252
280 281 281 281 280 280 281 282 282 283 285 286 287 287 287 286 284 284 287 293 299 300 297 291 284 279 274 268 263 259 257 256 255 252 250 248 248 247 246 247 247 249 250
283 283 281 281 281 281 282 283 283 283 284 284 287 288 288 288 288 288 288 287 289 295 298 298 293 284 276 271 267 261 256 254 254 252 249 246 245 245 245 246 246 247 246
284 283 282 281 281 281 281 282 284 284 285 286 286 286 286 286 286 285 284 283 283 285 289 292 294 290 282 275 268 264 259 255 253 252 249 246 244 242 243 245 246 245 244